Regional Weather Roundup
Issued by NWS

Home | Current Version | Previous Version | Text Only | Print | Product List | Glossary Off
Versions: 1 2 3 4 5 6 7 8 9 10 11 12 13 14 15 16 17 18 19 20 21 22 23 24 25 26 27 28 29 30 31 32 33 34 35 36 37 38 39 40 41 42 43 44 45 46 47 48 49 50

000
ASUS45 KTFX 300504
RWRMT
MONTANA HOURLY WEATHER ROUNDUP
NATIONAL WEATHER SERVICE GREAT FALLS MT
1104 PM MDT WED OCT 29 2014

NOTE: "FAIR" INDICATES FEW OR NO CLOUDS BELOW 12000 FEET WITH NO
SIGNIFICANT WEATHER AND/OR OBSTRUCTIONS TO VISIBILITY.

* THESE STATIONS ARE NOT UNDER NWS QUALITY CONTROL. THEY DO NOT
   REPORT WEATHER SUCH AS PRECIPITATION OR FOG.

MTZ001>007-043-300600-
WEST OF THE DIVIDE
CITY           SKY/WX    TMP DP  RH WIND       PRES   REMARKS
KALISPELL      FOG       37  37 100 CALM      30.24R VSB 3/4
MISSOULA       CLEAR     39  37  93 CALM      30.26R
BUTTE          CLEAR     30  27  89 CALM      30.28R
MULLAN PASS    FOG       36  36 100 S5        30.23S VSB 1/2  WCI  32
* ANACONDA     CLEAR     36  28  73 SW5        N/A   WCI  32
* DEER LODGE   CLEAR     36  30  79 W6         N/A   WCI  31
* ESSEX        N/A       41  40  96 W1         N/A
* HAMILTON APT PTCLDY    37  34  89 S2         N/A
* LIBBY APT    PTCLDY    43  43 100 N/A        N/A
* LINCOLN      N/A       41  35  79 S3         N/A
* LOOKOUT PASS N/A       40  40 100 SE2        N/A
* POLSON       N/A       38  38 100 S1         N/A
* RONAN APT    CLEAR     37  36  96 N/A        N/A
* SEELEY LAKE  N/A       32  31  96 N2         N/A
* THOMP F APT  CLEAR     36  25  64 NE3        N/A
* YAAK HILL    N/A       45  42  89 E1         N/A
$$

MTZ008-052>055-300600-
SOUTHWEST MONTANA
CITY           SKY/WX    TMP DP  RH WIND       PRES   REMARKS
BOZEMAN        CLEAR     32  27  82 SE9       30.26R WCI  24
DILLON         PTCLDY    34  27  76 SW7       30.26R WCI  28
W YELLOWSTONE  CLEAR     27  25  92 CALM      30.30S
* ENNIS APT    PTCLDY    41  25  53 SE3        N/A
* THREE FORKS  PTCLDY    36  36 100 N/A        N/A
* BOULDER HILL N/A       38  22  53 S3         N/A
* MONIDA PASS  N/A       29  22  75 W1         N/A
* RAYNOLDS PAS N/A       32  21  64 SW6        N/A   WCI  26
* WHITEHALL    N/A       36  26  67 N6         N/A   WCI  31
* WISE RIVER   N/A       33  27  79 W3         N/A
$$

MTZ009>010-012-014-046-048-049-054-300600-
EAST SLOPES AND CENTRAL MONTANA
CITY           SKY/WX    TMP DP  RH WIND       PRES   REMARKS
CUT BANK       CLEAR     45  34  65 W22       30.14R
GREAT FALLS    PTCLDY    41  34  76 SW12      30.18R
HELENA         CLEAR     45  32  60 SW7       30.24R
MALMSTROM AFB  PTCLDY    37  34  89 SW7       30.20R WCI  32
* CONRAD       CLEAR     34  28  79 N/A        N/A
* DEARBORN     N/A       52  33  48 S7G13      N/A
* EAST GLACIER N/A       42  32  68 W13G19     N/A
* MONARCH      N/A       41  23  49 SW12       N/A
* SAINT MARY   N/A       44  33  65 S7G16      N/A
* SWEET GRASS  N/A       41  32  70 SW14       N/A
$$

MTZ011-013-016-021-035-040-045-047-050-051-300600-
NORTH CENTRAL MONTANA
CITY           SKY/WX    TMP DP  RH WIND       PRES   REMARKS
HAVRE          CLEAR     39  34  82 CALM      30.14R
LEWISTOWN      MOCLDY    41  30  65 W8        30.19R
* N BAR RANCH  FAIR      41  28  60 CALM      30.20R
* CHESTER      N/A       38  29  70 S2         N/A
* DENTON       N/A       41  31  68 W8         N/A
* GEYSER       N/A       41  30  65 NW7        N/A
* JUDITH GAP   N/A       41  27  58 W12        N/A
* LOMA         N/A       46  33  61 SW9        N/A
$$

MTZ017>020-022>027-061-062-300600-
NORTHEAST MONTANA
CITY           SKY/WX    TMP DP  RH WIND       PRES   REMARKS
GLASGOW        PTCLDY    37  32  82 W8        30.11R WCI  31
GLENDIVE       CLEAR     39  34  82 NW12      30.09R WCI  32
JORDAN         CLEAR     36  32  85 CALM      30.11R
SIDNEY         CLEAR     37  34  89 CALM      30.09R
WOLF POINT     CLEAR     41  34  76 NE3       30.11R
* BEAVER HILL  N/A       40  33  76 N/A        N/A
* CIRCLE       N/A       43  35  73 NW6        N/A
* LINDSAY DVD  N/A       37  32  82 NW7        N/A   WCI  32
* NAVAJO       N/A       35  33  92 N10        N/A   WCI  27
* PLENTYWOOD A N/A       29 N/A N/A N/A        N/A
* POPLAR APT   N/A       39  36  89 N/A        N/A
$$

MTZ028>042-056>058-300600-
SOUTHCENTRAL AND SOUTHEAST MONTANA
CITY           SKY/WX    TMP DP  RH WIND       PRES   REMARKS
BAKER          PTCLDY    39  34  82 W10       30.08R WCI  32
BILLINGS       PTCLDY    48  28  46 NW13      30.18R
LIVINGSTON     CLEAR     39  27  62 NW7       30.24R WCI  34
MILES CITY     MOCLDY    39  30  70 NW9       30.11R WCI  33
* FORSYTH APT  PTCLDY    48  30  50 SW3        N/A
* LAUREL APT   CLEAR     48  27  44 NW6        N/A
* ROUNDUP APT  CLEAR     45  27  49 N/A        N/A
* ALZADA       N/A       37  30  76 NW3        N/A
* HYSHAM       N/A       47  27  46 W3         N/A
* LAME DEER    N/A       47  30  52 NW6        N/A
* REED POINT   N/A       40  28  62 E4         N/A
* ROSCOE HILL  N/A       44  16  32 E4         N/A
$$

REGIONAL REPORTS...DAKOTAS
CITY           SKY/WX    TMP DP  RH WIND       PRES   REMARKS
WILLISTON      CLEAR     39  34  82 N13       30.05R WCI  31
DICKINSON      CLEAR     39  34  82 NW12      29.99R WCI  32
BEACH          N/A       39  36  89 NW12      30.06R WCI  32
CROSBY         CLEAR     32  32 100 NW15G20   30.05R WCI  22
TIOGA          CLEAR     36  36 100 N13G21    30.04R WCI  27
BISMARCK       FOG       41  41 100 NW5       29.97R
GRAND FORKS    CLOUDY    37  32  82 SE10      29.98F WCI  30
FARGO          CLOUDY    39  34  82 SE13      29.99F WCI  31
BUFFALO SD     PTCLDY    37  34  89 W13       30.00R WCI  29
RAPID CITY     CLEAR     43  34  71 NW10      30.10R
$$

REGIONAL REPORTS...WYOMING/IDAHO/WASHINGTON
CITY           SKY/WX    TMP DP  RH WIND       PRES   REMARKS
GILLETTE       CLEAR     43  25  49 W12       30.18R
SHERIDAN       PTCLDY    45  25  45 N3        30.20R
CODY           PTCLDY    37  25  62 CALM      30.24R
YELLOWSTONE LA CLEAR     27  25  92 CALM      30.34R
SALMON         PTCLDY    37  32  82 CALM      30.24R
MULLAN PASS    FOG       36  36 100 S5        30.23S VSB 1/2  WCI  32
SAND POINT     FOG       41  41 100 CALM      30.22S VSB 1 1/2
SPOKANE        MOCLDY    46  46 100 NE6       30.18S

$$




USA.gov is the U.S. government's official web portal to all federal, state and local government web resources and services.